Weather History for Hereford, TX

Change the Weather History Date:

Sunday, December 9, 2012

  Actual Average (KAMA) Record (KAMA)
Temperature  
Mean Temperature 34 °F 37 °F  
Max Temperature 46 °F 50 °F 80 °F (1996)
Min Temperature 21 °F 25 °F -4 °F (1978)
Degree Days  
Heating Degree Days 32 28  
Month to date heating degree days 239  
Since 1 July heating degree days 1083  
Cooling Degree Days 0 0  
Month to date cooling degree days 0  
Year to date cooling degree days 1399  
Moisture  
Dew Point 18 °F    
Average Humidity 54    
Maximum Humidity 87    
Minimum Humidity 31    
Precipitation  
Precipitation 0.00 in 0.03 in 3.11 in (1943)
Month to date precipitation 0.19  
Year to date precipitation 19.84  
Snow  
Snow 0.00 in 0.10 in 3.30 in (1898)
Month to date snowfall 1.1  
Since 1 July snowfall 3.8  
Snow Depth -    
Sea Level Pressure  
Sea Level Pressure 30.02 in    
Wind  
Wind Speed 19 mph (NNE)    
Max Wind Speed 32 mph    
Max Gust Speed 46 mph    
Visibility 10 miles    
Events Snow    
T = Trace of Precipitation, MM = Missing Value Source: NWS Daily Summary

Daily Weather History Graph

Daily Weather History Graph

Search for Another Location

Airport:

Trip Planner

Search our weather history database for the weather conditions in past years. The results will help you decide how hot, cold, wet, or windy it might be!

Date:

Astronomy

Dec. 09, 2012 Rise Set
Actual Time 7:45 AM CST 5:38 PM CST
Civil Twilight 7:17 AM CST 6:06 PM CST
Nautical Twilight 6:46 AM CST 6:37 PM CST
Astronomical Twilight 6:15 AM CST 7:08 PM CST
Moon 3:28 AM CST (12/9) 2:40 PM CST (12/9)
Length of Visible Light 10h 48m
Length of Day
9h 52m
Waning Crescent, 18% of the Moon is Illuminated
Dec 9
Waning Crescent
Dec 13
New
Dec 19
First Quarter
Dec 28
Full
Jan 4
Last Quarter

Hourly Weather History & Observations

Time (CST) Temp. Windchill Dew Point Humidity Pressure Visibility Wind Dir Wind Speed Gust Speed Precip Events Conditions
12:15 AM 46.4 °F 39.5 °F 21.2 °F 37% 29.75 in 10.0 mi West 17.3 mph 27.6 mph N/A   Clear
12:35 AM 46.4 °F 39.0 °F 21.2 °F 37% 29.75 in 10.0 mi WNW 19.6 mph - N/A   Clear
1:15 AM 44.6 °F - 21.2 °F 39% 29.76 in 10.0 mi North - - N/A   Clear
1:35 AM 42.8 °F 33.1 °F 21.2 °F 42% 29.75 in 10.0 mi WNW 25.3 mph - N/A   Clear
1:55 AM 44.6 °F 35.7 °F 21.2 °F 39% 29.76 in 10.0 mi WNW 24.2 mph - N/A   Clear
2:15 AM 42.8 °F 36.2 °F 23.0 °F 46% 29.80 in 10.0 mi NW 12.7 mph 20.7 mph N/A   Clear
2:35 AM 44.6 °F 38.1 °F 21.2 °F 39% 29.82 in 10.0 mi NW 13.8 mph 26.5 mph N/A   Clear
2:55 AM 37.4 °F 27.5 °F 30.2 °F 75% 29.85 in 7.0 mi North 18.4 mph - N/A   Clear
3:15 AM 37.4 °F 27.2 °F 32.0 °F 81% 29.87 in 7.0 mi NNE 19.6 mph 42.6 mph N/A   Mostly Cloudy
3:35 AM 37.4 °F 27.2 °F 33.8 °F 87% 29.88 in 10.0 mi NNE 19.6 mph 27.6 mph N/A   Overcast
3:55 AM 39.2 °F 29.6 °F 33.8 °F 81% 29.88 in 7.0 mi NNE 19.6 mph 46.0 mph N/A   Overcast
4:15 AM 39.2 °F 27.6 °F 32.0 °F 75% 29.88 in 10.0 mi NNE 28.8 mph 43.7 mph N/A   Overcast
4:35 AM 37.4 °F 25.6 °F 30.2 °F 75% 29.89 in 7.0 mi NNE 26.5 mph 42.6 mph N/A   Overcast
4:55 AM 35.6 °F 25.9 °F 28.4 °F 75% 29.90 in 10.0 mi North 16.1 mph 23.0 mph N/A   Scattered Clouds
5:15 AM 33.8 °F 21.9 °F 24.8 °F 70% 29.91 in 10.0 mi NNE 21.9 mph 33.4 mph N/A   Clear
5:35 AM 33.8 °F 22.8 °F 23.0 °F 65% 29.91 in 10.0 mi NNE 18.4 mph 27.6 mph N/A   Clear
5:55 AM 33.8 °F 23.2 °F 21.2 °F 60% 29.93 in 10.0 mi NNE 17.3 mph 38.0 mph N/A   Clear
6:15 AM 32.0 °F 20.1 °F 21.2 °F 64% 29.94 in 10.0 mi NNE 19.6 mph 32.2 mph N/A   Clear
6:35 AM 32.0 °F 21.6 °F 21.2 °F 64% 29.95 in 10.0 mi NNE 15.0 mph 23.0 mph N/A   Clear
6:55 AM 32.0 °F 22.5 °F 19.4 °F 60% 29.96 in 10.0 mi NNE 12.7 mph 25.3 mph N/A   Clear
7:15 AM 32.0 °F 23.6 °F 19.4 °F 60% 29.98 in 10.0 mi North 10.4 mph - N/A   Clear
7:35 AM 30.2 °F 21.3 °F 19.4 °F 64% 29.99 in 10.0 mi NNE 10.4 mph 18.4 mph N/A   Clear
7:55 AM 30.2 °F 22.6 °F 19.4 °F 64% 30.00 in 10.0 mi North 8.1 mph - N/A   Clear
8:15 AM 30.2 °F 21.3 °F 19.4 °F 64% 30.00 in 10.0 mi North 10.4 mph - N/A   Clear
8:35 AM 32.0 °F 23.0 °F 19.4 °F 60% 30.00 in 10.0 mi NNE 11.5 mph - N/A   Clear
8:55 AM 32.0 °F 21.2 °F 19.4 °F 60% 30.02 in 10.0 mi NNE 16.1 mph 24.2 mph N/A   Clear
9:15 AM 33.8 °F - 19.4 °F 56% 30.02 in 10.0 mi North - - N/A   Clear
9:35 AM 33.8 °F 21.6 °F 19.4 °F 56% 30.03 in 10.0 mi NNE 23.0 mph 40.3 mph N/A   Clear
9:55 AM 35.6 °F 23.0 °F 17.6 °F 48% 30.03 in 10.0 mi NNE 27.6 mph 40.3 mph N/A   Clear
10:35 AM 35.6 °F 22.1 °F 17.6 °F 48% 30.05 in 10.0 mi NE 32.2 mph - N/A   Clear
10:55 AM 37.4 °F - 17.6 °F 45% 30.05 in 10.0 mi North - - N/A   Clear
11:15 AM 37.4 °F - 15.8 °F 41% 30.06 in 10.0 mi North - - N/A   Clear
11:35 AM 39.2 °F 28.3 °F 15.8 °F 39% 30.05 in 10.0 mi NE 25.3 mph - N/A   Clear
11:55 AM 37.4 °F 26.4 °F 14.0 °F 38% 30.05 in 10.0 mi NE 23.0 mph - N/A   Clear
12:15 PM 39.2 °F - 14.0 °F 36% 30.04 in 10.0 mi North - - N/A   Clear
12:35 PM 39.2 °F 29.6 °F 14.0 °F 36% 30.04 in 10.0 mi NNE 19.6 mph 46.0 mph N/A   Clear
12:55 PM 39.2 °F 28.7 °F 14.0 °F 36% 30.02 in 10.0 mi NE 23.0 mph 36.8 mph N/A   Clear
1:15 PM 39.2 °F 29.0 °F 12.2 °F 33% 30.01 in 10.0 mi NE 21.9 mph - N/A   Clear
1:35 PM 39.2 °F 28.0 °F 12.2 °F 33% 30.00 in 10.0 mi NNE 26.5 mph 41.4 mph N/A   Clear
1:55 PM 39.2 °F 28.7 °F 12.2 °F 33% 30.00 in 10.0 mi NNE 23.0 mph 44.9 mph N/A   Clear
2:15 PM 41.0 °F 31.1 °F 12.2 °F 31% 30.00 in 10.0 mi NE 23.0 mph 38.0 mph N/A   Clear
2:35 PM 39.2 °F - 12.2 °F 33% 30.00 in 10.0 mi North - - N/A   Clear
2:55 PM 39.2 °F 29.3 °F 12.2 °F 33% 30.01 in 10.0 mi NE 20.7 mph 35.7 mph N/A   Clear
3:15 PM 37.4 °F 26.4 °F 12.2 °F 36% 30.02 in 10.0 mi NNE 23.0 mph 28.8 mph N/A   Clear
3:35 PM 37.4 °F 26.9 °F 12.2 °F 36% 30.02 in 10.0 mi NE 20.7 mph 31.1 mph N/A   Clear
3:55 PM 37.4 °F 27.2 °F 12.2 °F 36% 30.03 in 10.0 mi NE 19.6 mph 27.6 mph N/A   Clear
4:15 PM 33.8 °F 21.3 °F 12.2 °F 41% 30.04 in 10.0 mi NNE 24.2 mph 35.7 mph N/A   Clear
4:35 PM 33.8 °F 22.2 °F 12.2 °F 41% 30.05 in 10.0 mi NNE 20.7 mph 32.2 mph N/A   Clear
4:55 PM 32.0 °F 19.2 °F 12.2 °F 44% 30.06 in 10.0 mi NNE 23.0 mph - N/A   Clear
5:15 PM 32.0 °F 19.2 °F 12.2 °F 44% 30.07 in 10.0 mi NNE 23.0 mph 26.5 mph N/A   Clear
5:35 PM 30.2 °F 18.9 °F 10.4 °F 44% 30.09 in 10.0 mi NNE 16.1 mph 31.1 mph N/A   Clear
5:55 PM 30.2 °F - 10.4 °F 44% 30.10 in 10.0 mi North - - N/A   Clear
6:15 PM 30.2 °F 19.3 °F 10.4 °F 44% 30.10 in 10.0 mi North 15.0 mph - N/A   Clear
6:35 PM 32.0 °F - 10.4 °F 41% 30.12 in 10.0 mi North - - N/A   Scattered Clouds
6:55 PM 32.0 °F - 10.4 °F 41% 30.13 in 10.0 mi North - - N/A   Scattered Clouds
7:15 PM 30.2 °F - 6.8 °F 37% 30.15 in 10.0 mi North - - N/A   Scattered Clouds
7:35 PM 30.2 °F 15.9 °F 8.6 °F 40% 30.14 in 10.0 mi North 26.5 mph - N/A   Scattered Clouds
7:55 PM 30.2 °F 16.2 °F 10.4 °F 44% 30.16 in 10.0 mi North 25.3 mph 34.5 mph N/A   Scattered Clouds
8:15 PM 30.2 °F 15.9 °F 8.6 °F 40% 30.15 in 10.0 mi North 26.5 mph 33.4 mph N/A   Scattered Clouds
8:35 PM 28.4 °F - 8.6 °F 43% 30.17 in 10.0 mi North - - N/A   Scattered Clouds
8:55 PM 28.4 °F 14.4 °F 14.0 °F 55% 30.17 in 10.0 mi North 23.0 mph - N/A Snow Light Snow
9:15 PM 24.8 °F - 19.4 °F 80% 30.20 in 0.5 mi North - - N/A Snow Light Snow
9:35 PM 23.0 °F 7.6 °F 19.4 °F 86% 30.20 in 2.0 mi North 21.9 mph 26.5 mph N/A Snow Light Snow
9:55 PM 23.0 °F 8.3 °F 19.4 °F 86% 30.21 in 3.0 mi North 19.6 mph 26.5 mph N/A Snow Light Snow
10:15 PM 23.0 °F 10.6 °F 19.4 °F 86% 30.19 in 10.0 mi North 13.8 mph 20.7 mph N/A   Scattered Clouds
10:35 PM 23.0 °F 11.1 °F 19.4 °F 86% 30.20 in 10.0 mi North 12.7 mph - N/A   Clear
10:55 PM 23.0 °F 13.1 °F 19.4 °F 86% 30.22 in 10.0 mi North 9.2 mph - N/A   Clear
11:15 PM 21.2 °F 11.7 °F 17.6 °F 86% 30.22 in 10.0 mi NNW 8.1 mph - N/A   Clear
11:35 PM 21.2 °F 10.9 °F 17.6 °F 86% 30.22 in 10.0 mi NNW 9.2 mph - N/A   Clear
11:55 PM 23.0 °F - 17.6 °F 80% 30.22 in 10.0 mi North - - N/A   Clear